Regional Weather Roundup
Issued by NWS

Home | Current Version | Previous Version | Graphics & Text | Print | Product List | Glossary On
Versions: 1 2 3 4 5 6 7 8 9 10 11 12 13 14 15 16 17 18 19 20 21 22 23 24 25 26 27 28 29 30 31 32 33 34 35 36 37 38 39 40 41 42 43 44 45 46 47 48 49 50
000
ASUS45 KCYS 062110
RWRWY

WYOMING REGIONAL WEATHER ROUNDUP
NATIONAL WEATHER SERVICE CHEYENNE WY
300 PM MDT MON JUL 06 2015

NOTE:  "FAIR" INDICATES FEW OR NO CLOUDS BELOW 12,000 FEET
WITH NO SIGNIFICANT WEATHER AND/OR OBSTRUCTIONS TO VISIBILITY.

WYZ001-062200-
YELLOWSTONE NATIONAL PARK

CITY           SKY/WX    TMP DP  RH WIND       PRES   REMARKS
LK YELLOWSTONE   N/A     65  44  46 VRB6      30.33F
W YELLOWSTONE  NOT AVBL

$$
WYZ002>013-054>058-071-098>099-062200-
NORTHERN WYOMING

CITY           SKY/WX    TMP DP  RH WIND       PRES   REMARKS
JACKSON        PTSUNNY   63  55  77 CALM      30.25F
CODY           PTSUNNY   66  48  52 S7        30.23F
GREYBULL       PTSUNNY   74  49  41 VRB5      30.18F
WORLAND        PTSUNNY   70  52  52 VRB5      30.20F
SHERIDAN       CLOUDY    60  52  74 CALM      30.26S
BUFFALO        CLOUDY    58  53  84 SE5       30.29S HAZE
GILLETTE       CLOUDY    66  52  60 NE6       30.25F
HULETT         CLOUDY    63  52  67 W3        30.28F
NEWCASTLE      FAIR      64  52  63 S12       30.26S HAZE

$$
WYZ014>020-022>026-101>103-062200-
CENTRAL WYOMING

CITY           SKY/WX    TMP DP  RH WIND       PRES   REMARKS
BIG PINEY      PTSUNNY   68  53  58 SW10      30.28S
PINEDALE       RAIN      64  50  59 S3        30.29S
DUBOIS         CLOUDY    59  50  72 SE14G21   30.30S
LANDER         CLOUDY    65  55  70 CALM      30.24F
RIVERTON       CLOUDY    68  51  54 CALM      30.25F
CASPER         CLOUDY    67  50  54 E12       30.27F
DOUGLAS        CLOUDY    60  54  80 S7        30.29F HAZE

$$
WYZ021-027>030-104>119-062200-
SOUTHERN WYOMING

CITY           SKY/WX    TMP DP  RH WIND       PRES   REMARKS
EVANSTON       FAIR      75  45  34 W10G18    30.24F
KEMMERER       FAIR     N/A N/A N/A SW12      30.26F
FORT BRIDGER   MOCLDY    73  50  43 NW6       30.27F
ROCK SPRINGS   FAIR      74  50  42 MISG      30.24F
DIXON          FAIR      78  50  37 NW10G17   30.25F
RAWLINS        PTSUNNY   68  51  54 CALM      30.30F
SARATOGA       FAIR      70  50  49 NW8       30.31S
LARAMIE        CLOUDY    61  51  70 SE9       30.33F
CHEYENNE       CLOUDY    58  52  80 NE7       30.32F HAZE
TORRINGTON     CLOUDY    66  53  63 SE5       30.26F HAZE
PINE BLUFFS    CLOUDY    59  54  82 NE10      30.31S HAZE

$$



USA.gov is the U.S. government's official web portal to all federal, state and local government web resources and services.